Regional Weather Roundup
Issued by NWS

Home | Current Version | Previous Version | Graphics & Text | Print | Product List | Glossary On
Versions: 1 2 3 4 5 6 7 8 9 10 11 12 13 14 15 16 17 18 19 20 21 22 23 24 25 26 27 28 29 30 31 32 33 34 35 36 37 38 39 40 41 42 43 44 45 46 47 48 49 50
000
ASUS43 KFSD 231702
RWRSD

WEATHER ROUNDUP FOR SOUTH DAKOTA
NATIONAL WEATHER SERVICE SIOUX FALLS SD
1100 AM CST THU FEB 23 2017

NOTE: "FAIR" INDICATES FEW OR NO CLOUDS BELOW 12,000 FEET WITH NO
SIGNIFICANT WEATHER AND/OR OBSTRUCTIONS TO VISIBILITY.


SDZ001>005-009-010-012>017-231800-
NORTHWEST AND NORTH CENTRAL SOUTH DAKOTA

CITY           SKY/WX    TMP DP  RH WIND       PRES   REMARKS
BUFFALO          N/A     29  22  75 E15       29.85S WCI  18
FAITH            N/A     29  25  85 NE16      29.92S WCI  17
MOBRIDGE       CLOUDY    32  23  69 NE15      29.95F WCI  22
$$

SDZ012>016-024>037-041>051-057-063-072>074-231800-
SOUTHWEST AND SOUTH CENTRAL SOUTH DAKOTA

CITY           SKY/WX    TMP DP  RH WIND       PRES   REMARKS
RAPID CTY ARPT LGT SNOW  25  22  88 NE9       29.89R VSB 3/4 WCI  15
PIERRE         PTSUNNY   32  23  69 NE15      29.93R WCI  22
CUSTER         LGT SNOW  18  14  84 NE17G28   29.72R FOG     WCI   3
PHILIP         CLOUDY    30  22  72 E18       29.93R WCI  18
PINE RIDGE     SNOW      24  22  91 NE20G28   29.81S VSB 1/4 WCI  10
SPEARFISH      LGT SNOW  25  25 100 MISG      29.85S
WINNER         LGT SNOW  29  25  85 NE18      29.89R VSB 3/4 WCI  16
$$

SDZ004>011-016>023-039-040-231800-
NORTHEAST SOUTH DAKOTA

CITY           SKY/WX    TMP DP  RH WIND       PRES   REMARKS
ABERDEEN       CLOUDY    30  22  72 NE16      29.99F WCI  19
WATERTOWN      CLOUDY    29  23  78 NE21      29.91F WCI  16
BROOKINGS      CLOUDY    29  24  82 NE18G24   29.89R WCI  16
SISSETON         N/A     30  24  78 NE20G26   30.00R WCI  17
$$

SDZ017-020-022-023-036>040-048>070-231800-
SOUTHEAST SOUTH DAKOTA

CITY           SKY/WX    TMP DP  RH WIND       PRES   REMARKS
SIOUX FALLS    CLOUDY    32  26  78 NE18      29.88S WCI  20
HURON          CLOUDY    32  24  72 NE15      29.93F WCI  22
CHAMBERLAIN    CLOUDY    32  26  77 NE12      29.93R WCI  23
MITCHELL       CLOUDY    33  25  72 NE14      29.93R WCI  23
YANKTON        CLOUDY    32  27  80 NE13      29.84S WCI  22
$$

ABBREVIATIONS USED IN REMARKS
   TC - TEMPERATURE IN CELSIUS
  WCI - WIND CHILL INDEX
   HX - HEAT INDEX
  VSB - VISIBILITY





USA.gov is the U.S. government's official web portal to all federal, state and local government web resources and services.